• en France
  • Liste des pays
  • À 7 jours
  • Température de l'eau
  • Carte satellitaire
  • Carte météo
  • Widgets météo
  • user-avatar
    Se connecter

    Météo par heure à Korovka

    Ce jour, 22 Mai, Mardi

    Heure Température Précipitation Vent Pression Humidité
    00:00 +12°C° 0 mm 4 m/s 757 mmHg 69%
    01:00 +12°C° 0 mm 4 m/s 757 mmHg 67%
    02:00 +12°C° 0 mm 4 m/s 757 mmHg 66%
    03:00 +12°C° 0 mm 4 m/s 757 mmHg 65%
    04:00 +12°C° 0 mm 4 m/s 757 mmHg 66%
    05:00 +11°C° 0 mm 4 m/s 758 mmHg 68%
    06:00 +11°C° 0 mm 4 m/s 758 mmHg 69%
    07:00 +11°C° 0,4 mm 4 m/s 758 mmHg 73%
    08:00 +12°C° 0,4 mm 4 m/s 758 mmHg 76%
    09:00 +12°C° 0,4 mm 4 m/s 758 mmHg 79%
    10:00 +13°C° 0,1 mm 4 m/s 758 mmHg 79%
    11:00 +14°C° 0,1 mm 4 m/s 758 mmHg 78%
    12:00 +15°C° 0,1 mm 4 m/s 758 mmHg 77%
    13:00 +17°C° 0 mm 4 m/s 758 mmHg 74%
    14:00 +19°C° 0 mm 4 m/s 757 mmHg 72%
    15:00 +20°C° 0 mm 5 m/s 757 mmHg 69%
    16:00 +20°C° 0 mm 4 m/s 757 mmHg 71%
    17:00 +20°C° 0 mm 4 m/s 757 mmHg 74%
    18:00 +20°C° 0 mm 3 m/s 757 mmHg 76%
    19:00 +19°C° 0,1 mm 3 m/s 756 mmHg 79%
    20:00 +18°C° 0,1 mm 2 m/s 756 mmHg 82%
    21:00 +17°C° 0,1 mm 2 m/s 756 mmHg 85%
    22:00 +16°C° 0,2 mm 2 m/s 756 mmHg 87%
    23:00 +16°C° 0,2 mm 2 m/s 756 mmHg 89%

    Demain, 23 Mai, Mercredi

    Heure Température Précipitation Vent Pression Humidité
    00:00 +16°C° 0,2 mm 2 m/s 756 mmHg 91%
    01:00 +15°C° 0,1 mm 2 m/s 756 mmHg 92%
    02:00 +15°C° 0,1 mm 2 m/s 756 mmHg 93%
    03:00 +15°C° 0,1 mm 2 m/s 756 mmHg 93%
    04:00 +15°C° 0,4 mm 2 m/s 756 mmHg 93%
    05:00 +15°C° 0,4 mm 2 m/s 756 mmHg 93%
    06:00 +15°C° 0,4 mm 2 m/s 756 mmHg 93%
    07:00 +17°C° 0,3 mm 2 m/s 756 mmHg 90%
    08:00 +18°C° 0,3 mm 2 m/s 756 mmHg 86%
    09:00 +19°C° 0,3 mm 2 m/s 756 mmHg 83%
    10:00 +20°C° 0 mm 2 m/s 756 mmHg 80%
    11:00 +21°C° 0 mm 2 m/s 755 mmHg 76%
    12:00 +23°C° 0 mm 2 m/s 755 mmHg 73%
    13:00 +24°C° 0 mm 2 m/s 755 mmHg 72%
    14:00 +24°C° 0 mm 2 m/s 755 mmHg 71%
    15:00 +24°C° 0 mm 2 m/s 755 mmHg 71%
    16:00 +24°C° 0,3 mm 2 m/s 754 mmHg 73%
    17:00 +24°C° 0,3 mm 2 m/s 754 mmHg 75%
    18:00 +24°C° 0,3 mm 2 m/s 754 mmHg 77%
    19:00 +21°C° 0,3 mm 2 m/s 754 mmHg 81%
    20:00 +21°C° 0,3 mm 1 m/s 754 mmHg 86%
    21:00 +19°C° 0,3 mm 1 m/s 754 mmHg 90%
    22:00 +18°C° 0,1 mm 1 m/s 753 mmHg 91%
    23:00 +18°C° 0,1 mm 1 m/s 753 mmHg 92%

    Après-demain, 24 Mai, Jeudi

    Heure Température Précipitation Vent Pression Humidité
    00:00 +16°C° 0,1 mm 1 m/s 753 mmHg 92%
    01:00 +16°C° 0 mm 1 m/s 753 mmHg 93%
    02:00 +16°C° 0 mm 1 m/s 753 mmHg 93%
    03:00 +14°C° 0 mm 0 m/s 753 mmHg 93%
    04:00 +15°C° 0,1 mm 0 m/s 752 mmHg 92%
    05:00 +16°C° 0,1 mm 0 m/s 752 mmHg 91%
    06:00 +16°C° 0,1 mm 0 m/s 752 mmHg 89%
    07:00 +18°C° 0,1 mm 0 m/s 752 mmHg 85%
    08:00 +19°C° 0,1 mm 0 m/s 752 mmHg 80%
    09:00 +23°C° 0,1 mm 1 m/s 752 mmHg 75%
    10:00 +24°C° 0,2 mm 1 m/s 752 mmHg 70%
    11:00 +25°C° 0,2 mm 1 m/s 752 mmHg 65%
    12:00 +26°C° 0,2 mm 1 m/s 752 mmHg 59%
    13:00 +26°C° 0,3 mm 1 m/s 751 mmHg 58%
    14:00 +26°C° 0,3 mm 1 m/s 751 mmHg 57%
    15:00 +26°C° 0,3 mm 1 m/s 751 mmHg 56%
    16:00 +25°C° 0,7 mm 1 m/s 750 mmHg 62%
    17:00 +24°C° 0,7 mm 2 m/s 750 mmHg 68%
    18:00 +24°C° 0,7 mm 2 m/s 750 mmHg 74%
    19:00 +21°C° 0,2 mm 2 m/s 750 mmHg 79%
    20:00 +19°C° 0,2 mm 2 m/s 751 mmHg 84%
    21:00 +18°C° 0,2 mm 3 m/s 751 mmHg 88%
    22:00 +17°C° 0 mm 3 m/s 751 mmHg 90%
    23:00 +17°C° 0 mm 4 m/s 751 mmHg 91%

    25 Mai, Vendredi

    Heure Température Précipitation Vent Pression Humidité
    00:00 +15°C° 0 mm 4 m/s 752 mmHg 93%
    01:00 +14°C° 0 mm 5 m/s 752 mmHg 93%
    02:00 +14°C° 0 mm 5 m/s 752 mmHg 93%
    03:00 +13°C° 0 mm 6 m/s 753 mmHg 94%
    04:00 +13°C° 0 mm 6 m/s 753 mmHg 91%
    05:00 +11°C° 0 mm 6 m/s 754 mmHg 88%
    06:00 +11°C° 0 mm 7 m/s 755 mmHg 85%
    07:00 +11°C° 0 mm 7 m/s 755 mmHg 78%
    08:00 +12°C° 0 mm 7 m/s 756 mmHg 72%
    09:00 +14°C° 0 mm 7 m/s 756 mmHg 66%
    10:00 +15°C° 0 mm 7 m/s 757 mmHg 62%
    11:00 +16°C° 0 mm 7 m/s 757 mmHg 58%
    12:00 +16°C° 0 mm 6 m/s 757 mmHg 53%
    13:00 +16°C° 0 mm 6 m/s 757 mmHg 52%
    14:00 +17°C° 0 mm 6 m/s 757 mmHg 51%
    15:00 +17°C° 0 mm 6 m/s 758 mmHg 50%
    16:00 +16°C° 0 mm 6 m/s 758 mmHg 53%
    17:00 +16°C° 0 mm 5 m/s 758 mmHg 56%
    18:00 +15°C° 0 mm 5 m/s 758 mmHg 59%
    19:00 +14°C° 0 mm 4 m/s 759 mmHg 60%
    20:00 +12°C° 0 mm 4 m/s 759 mmHg 62%
    21:00 +10°C° 0 mm 4 m/s 760 mmHg 64%
    22:00 +10°C° 0 mm 3 m/s 760 mmHg 65%
    23:00 +9°C° 0 mm 3 m/s 761 mmHg 65%

    26 Mai, Samedi

    Heure Température Précipitation Vent Pression Humidité
    00:00 +8°C° 0 mm 3 m/s 761 mmHg 66%
    01:00 +8°C° 0 mm 3 m/s 761 mmHg 67%
    02:00 +7°C° 0 mm 3 m/s 762 mmHg 68%
    03:00 +5°C° 0 mm 3 m/s 762 mmHg 69%
    04:00 +7°C° 0 mm 3 m/s 763 mmHg 69%
    05:00 +7°C° 0 mm 3 m/s 763 mmHg 69%
    06:00 +8°C° 0 mm 3 m/s 763 mmHg 70%
    07:00 +10°C° 0 mm 3 m/s 764 mmHg 63%
    08:00 +12°C° 0 mm 3 m/s 764 mmHg 57%
    09:00 +13°C° 0 mm 3 m/s 764 mmHg 51%
    10:00 +14°C° 0 mm 3 m/s 764 mmHg 49%
    11:00 +16°C° 0 mm 3 m/s 764 mmHg 47%
    12:00 +17°C° 0 mm 3 m/s 764 mmHg 44%
    13:00 +18°C° 0 mm 3 m/s 764 mmHg 44%
    14:00 +18°C° 0 mm 3 m/s 764 mmHg 44%
    15:00 +19°C° 0 mm 2 m/s 763 mmHg 44%
    16:00 +19°C° 0 mm 2 m/s 763 mmHg 47%
    17:00 +19°C° 0 mm 2 m/s 763 mmHg 50%
    18:00 +19°C° 0 mm 1 m/s 763 mmHg 52%
    19:00 +18°C° 0 mm 1 m/s 763 mmHg 57%
    20:00 +15°C° 0 mm 1 m/s 763 mmHg 62%
    21:00 +13°C° 0 mm 1 m/s 763 mmHg 66%
    22:00 +12°C° 0 mm 1 m/s 763 mmHg 69%
    23:00 +11°C° 0 mm 1 m/s 763 mmHg 71%

    27 Mai, Dimanche

    Heure Température Précipitation Vent Pression Humidité
    00:00 +10°C° 0 mm 2 m/s 763 mmHg 73%
    01:00 +9°C° 0 mm 2 m/s 763 mmHg 75%
    02:00 +10°C° 0 mm 1 m/s 763 mmHg 77%
    03:00 +10°C° 0 mm 1 m/s 763 mmHg 79%
    04:00 +10°C° 0 mm 1 m/s 764 mmHg 78%
    05:00 +11°C° 0 mm 1 m/s 764 mmHg 77%
    06:00 +12°C° 0 mm 1 m/s 764 mmHg 77%
    07:00 +13°C° 0 mm 1 m/s 763 mmHg 71%
    08:00 +15°C° 0 mm 2 m/s 763 mmHg 66%
    09:00 +17°C° 0 mm 2 m/s 763 mmHg 60%
    10:00 +18°C° 0 mm 2 m/s 763 mmHg 57%
    11:00 +19°C° 0 mm 2 m/s 763 mmHg 54%
    12:00 +20°C° 0 mm 2 m/s 762 mmHg 50%
    13:00 +20°C° 0 mm 2 m/s 762 mmHg 50%
    14:00 +20°C° 0 mm 3 m/s 761 mmHg 50%
    15:00 +21°C° 0 mm 3 m/s 761 mmHg 50%
    16:00 +21°C° 0 mm 2 m/s 761 mmHg 54%
    17:00 +20°C° 0 mm 2 m/s 760 mmHg 57%
    18:00 +20°C° 0 mm 2 m/s 760 mmHg 61%
    19:00 +18°C° 0 mm 2 m/s 760 mmHg 65%
    20:00 +16°C° 0 mm 2 m/s 760 mmHg 69%
    21:00 +15°C° 0 mm 1 m/s 760 mmHg 74%
    22:00 +14°C° 0 mm 2 m/s 760 mmHg 75%
    23:00 +13°C° 0 mm 2 m/s 760 mmHg 77%
    Voir plus